This demonstration page uses our WeatherBlox Daily Observations layout. Learn more.

Left ArrowRight Arrow

Hourly Observations for March 30, 2020

Temp ( °F °C ) Dew Point ( °F °C ) Humidity (%) Winds ( mph kmh ) Pressure ( in mb ) Visibility ( mi km ) Precip ( " mm )
12:53 am 00:53 Cloudy 54 12.2 47 8.3 77 77 SSW 8 13 30.07 1018 10 16 0.00 0.00
1:53 am 01:53 Cloudy 53 11.7 47 8.3 80 80 SW 3 6 30.10 1019 10 16 0.00 0.00
2:53 am 02:53 Cloudy 53 11.7 46 7.8 77 77 SSW 10 17 30.09 1019 10 16 0.00 0.00
3:53 am 03:53 Cloudy 53 11.7 46 7.8 77 77 SSW 14 22 30.10 1019 10 16 0.00 0.00
4:53 am 04:53 Cloudy 52 11.1 46 7.8 80 80 SSW 12 19 30.12 1020 10 16 0.00 0.00
5:53 am 05:53 Cloudy 52 11.1 46 7.8 80 80 SW 8 13 30.14 1021 10 16 0.00 0.00
6:53 am 06:53 Cloudy 52 11.1 46 7.8 80 80 SW 7 11 30.17 1022 10 16 0.00 0.00
7:53 am 07:53 Cloudy 52 11.1 46 7.8 80 80 SSW 10 17 30.19 1022 10 16 0.00 0.00
8:53 am 08:53 Cloudy 52 11.1 45 7.2 77 77 SSW 12 19 30.21 1023 10 16 0.00 0.00
9:53 am 09:53 Cloudy 53 11.7 44 6.7 72 72 S 16 26 30.23 1024 10 16 0.00 0.00
10:53 am 10:53 Cloudy 54 12.2 44 6.7 69 69 S 15 24 30.24 1024 10 16 0.00 0.00
11:50 am 11:50 Cloudy 54 12 45 7 72 72 SSW 10 17 30.25 1025 10 16 0.00 0.00
11:53 am 11:53 Cloudy 54 12.2 45 7.2 72 72 S 12 19 30.25 1024 10 16 0.00 0.00
12:50 pm 12:50 Cloudy 54 12 45 7 72 72 S 17 28 30.24 1024 10 16 0.00 0.00
12:53 pm 12:53 Cloudy 55 12.8 45 7.2 69 69 S 17 28 30.23 1024 10 16 0.00 0.00
1:53 pm 13:53 Cloudy 56 13.3 45 7.2 67 67 S 14 22 30.23 1024 10 16 0.00 0.00
2:53 pm 14:53 Cloudy 57 13.9 45 7.2 64 64 SSW 7 11 30.22 1023 10 16 0.00 0.00
3:07 pm 15:07 Cloudy 58 14.4 46 7.8 65 65 S 9 15 30.21 1023 10 16 0.00 0.00
3:53 pm 15:53 Cloudy 57 13.9 48 8.9 72 72 W 7 11 30.20 1023 10 16 0.00 0.00
4:53 pm 16:53 Cloudy 58 14.4 49 9.4 72 72 SSW 7 11 30.19 1022 10 16 0.00 0.00
5:53 pm 17:53 Cloudy with Light Rain 57 13.9 50 10 78 78 S 9 15 30.18 1022 10 16 0.00 0.00
6:53 pm 18:53 Cloudy 55 12.8 51 10.6 87 87 Calm 30.16 1021 10 16 0.02 0.51
7:53 pm 19:53 Cloudy 53 11.7 51 10.6 93 93 NNE 9 15 30.15 1021 10 16 0.00 0.00
8:53 pm 20:53 Cloudy 53 11.7 51 10.6 93 93 NNE 6 9 30.17 1022 9 14 0.00 0.00
9:53 pm 21:53 Cloudy 53 11.7 51 10.6 93 93 Calm 30.17 1022 10 16 0.00 0.00
10:53 pm 22:53 Cloudy 53 11.7 51 10.6 93 93 Calm 30.17 1022 10 16 0.00 0.00
11:53 pm 23:53 Cloudy with Light Rain 55 12.8 49 9.4 80 80 SSW 6 9 30.19 1023 8 13 0.00 0.00

Powered by AerisWeather